Regional Weather Roundup
Issued by NWS

Home | Current Version | Previous Version | Graphics & Text | Print | Product List | Glossary Off
Versions: 1 2 3 4 5 6 7 8 9 10 11 12 13 14 15 16 17 18 19 20 21 22 23 24 25 26 27 28 29 30 31 32 33 34 35 36 37 38 39 40 41 42 43 44 45 46 47 48 49 50

463
ASUS43 KTOP 241659
RWRKS

WEATHER ROUNDUP FOR KANSAS
NATIONAL WEATHER SERVICE GOODLAND KS
1200 PM CDT THU MAY 24 2018

NOTE:  "FAIR" INDICATES FEW OR NO CLOUDS BELOW 12,000 FEET WITH NO
SIGNIFICANT WEATHER AND/OR OBSTRUCTIONS TO VISIBILITY.

KSZ001>006-013>018-027>032-041>047-241800-
NORTHWEST KANSAS

CITY           SKY/WX    TMP DP  RH WIND       PRES   REMARKS
GOODLAND       SUNNY     80  59  48 NW8       30.00S
HAYS           CLOUDY    75  61  61 S13       30.04S
HILL CITY      MOSUNNY   82  57  42 S15G24    29.99F
RUSSELL        CLOUDY    77  62  59 S20       30.03S
$$

KSZ061>065-074>080-084>089-241800-
SOUTHWEST KANSAS

CITY           SKY/WX    TMP DP  RH WIND       PRES   REMARKS
DODGE CITY     CLOUDY    76  57  51 S14       30.06F
GARDEN CITY    CLOUDY    81  57  43 S15G28    30.04S
GREAT BEND     CLOUDY    73  63  70 S13       30.06R
LIBERAL        SUNNY     81  59  47 SW22G29   30.07S
$$

KSZ066>073-081>083-090>101-241800-
SOUTHEAST KANSAS

CITY           SKY/WX    TMP DP  RH WIND       PRES   REMARKS
CHANUTE        CLOUDY    79  71  76 S10       30.10R
COFFEYVILLE    SUNNY     81  71  71 S6        30.08S
HUTCHINSON     CLOUDY    83  61  47 S15       30.05R
MEDICINE LODGE   N/A     75  62  64 S9        30.07R
NEWTON         PTSUNNY   80  62  54 S14       30.07S
PARSONS        SUNNY     81  72  74 SE8       30.10R
WICHITA INTL   LGT RAIN  72  67  84 S6        30.07R
WICHITA JABRA  CLOUDY    78  68  71 S10       30.07S
WICHITA MCCONL MOSUNNY   77  64  63 SW9       30.07S
WINFIELD       CLOUDY    81  69  67 S9        30.06F
$$

KSZ007>012-019>026-033>040-048>060-102>105-241800-
NORTHEAST KANSAS

CITY           SKY/WX    TMP DP  RH WIND       PRES   REMARKS
CONCORDIA      CLOUDY    80  61  52 S15       30.04R
EMPORIA        PTSUNNY   79  69  71 S10       30.08R
LAWRENCE       MOSUNNY   82  69  64 SE13      30.07S
MANHATTAN      MOSUNNY   84  68  58 S13       30.03R
OLATHE IND     CLOUDY    80  68  66 SE12      30.09F
OLATHE EXE     CLOUDY    77  68  73 SE10      30.09F
SALINA         CLOUDY    86  63  45 SE15      30.03F
TOPEKA BILLARD MOSUNNY   83  71  67 SE12      30.05F
TOPEKA FORBES  MOSUNNY   83  69  62 SE14      30.06F
$$




USA.gov is the U.S. government's official web portal to all federal, state and local government web resources and services.